TimePST,TemperatureF,Dew PointF,Humidity,Sea Level PressureIn,VisibilityMPH,Wind Direction,Wind SpeedMPH,Gust SpeedMPH,PrecipitationIn,Events,Conditions,WindDirDegrees,DateUTC
12:56 AM,15.1,12.9,91,29.97,10.0,NNE,3.5,-,N/A,,Overcast,30,2013-01-11 08:56:00
1:56 AM,15.1,12.9,91,29.97,10.0,Calm,Calm,-,0.01,,Overcast,0,2013-01-11 09:56:00
2:56 AM,12.9,10.0,88,29.98,10.0,Calm,Calm,-,N/A,,Overcast,0,2013-01-11 10:56:00
3:56 AM,12.0,9.0,88,29.99,10.0,North,6.9,-,N/A,,Scattered Clouds,350,2013-01-11 11:56:00
4:56 AM,14.0,10.0,84,29.99,10.0,NNE,4.6,-,N/A,,Overcast,30,2013-01-11 12:56:00
5:56 AM,17.1,10.9,77,30.01,10.0,Calm,Calm,-,N/A,,Overcast,0,2013-01-11 13:56:00
6:56 AM,15.1,8.1,74,30.06,10.0,Calm,Calm,-,N/A,,Scattered Clouds,0,2013-01-11 14:56:00
7:56 AM,15.1,10.0,80,30.06,10.0,Calm,Calm,-,N/A,,Mostly Cloudy,0,2013-01-11 15:56:00
8:56 AM,18.0,12.0,78,30.08,10.0,West,4.6,-,N/A,,Overcast,270,2013-01-11 16:56:00
9:56 AM,19.9,12.9,74,30.09,10.0,Calm,Calm,-,N/A,,Overcast,0,2013-01-11 17:56:00
10:56 AM,23.0,12.0,63,30.08,10.0,West,4.6,-,N/A,,Overcast,270,2013-01-11 18:56:00
11:56 AM,23.0,15.1,72,30.06,10.0,WSW,6.9,-,N/A,,Partly Cloudy,240,2013-01-11 19:56:00
12:56 PM,25.0,12.9,60,30.06,10.0,West,10.4,-,N/A,,Overcast,270,2013-01-11 20:56:00
1:56 PM,23.0,10.0,58,30.08,10.0,NNW,9.2,-,0.00,,Mostly Cloudy,330,2013-01-11 21:56:00
2:56 PM,24.1,10.9,57,30.10,10.0,NW,9.2,-,N/A,,Clear,320,2013-01-11 22:56:00
3:56 PM,21.9,10.0,60,30.13,10.0,NNW,3.5,-,N/A,,Clear,340,2013-01-11 23:56:00
4:56 PM,12.0,5.0,73,30.15,10.0,SW,5.8,-,N/A,,Clear,230,2013-01-12 00:56:00
5:56 PM,3.9,1.0,88,30.18,10.0,Calm,Calm,-,N/A,,Clear,0,2013-01-12 01:56:00
6:56 PM,6.1,1.9,83,30.19,10.0,Calm,Calm,-,N/A,,Clear,0,2013-01-12 02:56:00
7:56 PM,-0.0,-4.0,83,30.22,10.0,SE,6.9,-,N/A,,Clear,140,2013-01-12 03:56:00
8:56 PM,1.0,-2.9,83,30.22,10.0,South,5.8,-,N/A,,Clear,170,2013-01-12 04:56:00
9:56 PM,-0.9,-5.1,83,30.24,10.0,South,9.2,-,N/A,,Clear,170,2013-01-12 05:56:00
10:56 PM,-5.1,-9.0,83,30.26,10.0,SSE,6.9,-,N/A,,Clear,150,2013-01-12 06:56:00
11:56 PM,-5.1,-9.9,80,30.26,10.0,South,5.8,-,N/A,,Clear,170,2013-01-12 07:56:00